CDT,Max TemperatureF,Mean TemperatureF,Min TemperatureF,Max Dew PointF,MeanDew PointF,Min DewpointF,Max Humidity, Mean Humidity, Min Humidity, Max Sea Level PressureIn, Mean Sea Level PressureIn, Min Sea Level PressureIn, Max VisibilityMiles, Mean VisibilityMiles, Min VisibilityMiles, Max Wind SpeedMPH, Mean Wind SpeedMPH, Max Gust SpeedMPH,PrecipitationIn, CloudCover, Events, WindDirDegrees
2013-9-1,93,83,73,77,72,68,89,73,44,29.98,29.93,29.87,10,9,4,14,1,18,0.32,1,Rain-Thunderstorm,262
2013-9-2,96,84,73,75,70,63,94,66,34,30.01,29.94,29.89,10,10,2,10,2,18,0.59,1,Rain,285
2013-9-3,96,86,75,75,72,66,89,70,39,30.01,29.96,29.89,10,10,7,13,1,20,0.00,1,Thunderstorm,257
2013-9-4,95,84,73,75,71,68,94,74,46,30.09,30.03,29.97,10,10,5,13,2,,0.00,2,Rain-Thunderstorm,81
2013-9-5,93,83,73,75,71,68,94,74,44,30.13,30.08,30.05,10,9,4,15,1,18,0.00,1,Thunderstorm,86
2013-9-6,93,83,73,73,71,66,94,77,41,30.13,30.07,30.02,10,9,2,7,1,,0.31,1,Rain-Thunderstorm,73
2013-9-7,93,82,71,72,69,63,94,72,36,30.08,30.03,29.99,10,9,4,12,1,16,0.01,0,,78
2013-9-8,93,81,69,70,68,63,94,70,36,30.04,29.99,29.95,10,8,2,10,1,,0.01,1,,130
2013-9-9,93,81,69,72,68,64,94,70,41,30.07,30.03,29.98,10,9,4,12,2,,0.00,1,,124
2013-9-10,93,81,69,72,69,63,94,69,38,30.13,30.09,30.04,10,9,5,13,3,18,0.00,1,,102
2013-9-11,95,84,73,72,69,61,89,66,32,30.15,30.09,30.05,10,10,7,10,4,,0.00,1,,86
2013-9-12,95,82,69,72,66,55,94,65,26,30.07,30.01,29.94,10,9,5,8,2,9,0.00,0,,68
2013-9-13,95,83,71,72,68,61,94,71,32,29.97,29.91,29.82,10,9,4,15,2,26,0.20,3,Rain-Thunderstorm,345
2013-9-14,91,81,71,72,67,61,94,68,36,30.00,29.94,29.90,10,9,5,8,3,,0.00,2,,55
2013-9-15,93,82,71,72,67,61,83,64,41,30.07,30.03,29.99,10,10,10,10,3,,0.00,2,,109
2013-9-16,93,82,71,73,69,63,94,69,36,30.10,30.06,30.02,10,9,4,10,2,16,0.00,0,,86
2013-9-17,95,83,71,72,68,57,94,66,28,30.10,30.04,29.99,10,9,5,13,3,16,0.00,1,,78
2013-9-18,91,83,75,73,71,68,89,74,46,30.08,30.03,30.00,10,10,7,13,3,23,0.00,1,Rain,88
2013-9-19,91,82,73,77,71,66,88,75,49,30.08,30.02,29.98,10,10,4,22,5,25,0.01,2,Rain-Thunderstorm,95
2013-9-20,91,83,75,75,72,68,89,74,49,30.01,29.91,29.82,10,10,7,16,5,20,0.00,2,,141
2013-9-21,80,74,69,75,71,66,94,86,74,29.82,29.79,29.74,10,8,1,16,4,25,2.76,7,Rain-Thunderstorm,56
2013-9-22,80,74,68,66,62,57,88,71,45,29.86,29.81,29.77,10,10,10,9,5,,0.00,5,,35
2013-9-23,91,78,64,73,66,57,83,68,46,29.86,29.84,29.80,10,10,10,9,3,,0.00,3,,112
2013-9-24,89,80,71,77,73,68,94,81,58,29.87,29.83,29.77,10,9,3,17,3,28,0.23,5,Rain-Thunderstorm,100
2013-9-25,93,80,66,72,64,50,94,69,26,29.87,29.83,29.78,10,8,0,9,2,,0.00,1,Fog,297
2013-9-26,89,76,62,66,61,55,94,67,31,29.96,29.91,29.84,10,10,5,8,1,,0.00,1,,346
2013-9-27,89,78,66,70,66,63,94,72,40,30.04,29.99,29.95,10,9,2,10,2,,0.00,1,,116
2013-9-28,87,78,68,68,65,59,88,68,38,30.10,30.05,30.00,10,10,10,7,2,,0.00,2,,96
2013-9-29,84,74,64,68,64,59,94,70,42,30.06,30.02,29.97,10,10,7,6,1,,0.00,3,,38
2013-9-30,86,78,71,72,68,64,94,78,58,29.99,29.96,29.93,10,10,4,12,3,,0.02,3,Rain-Thunderstorm,118